Location: *
(46.1866°S, 178.5290°W)
Time: 08:54:14
(UTC+00:00)

Cosmos 1461 - Pass Details

Date: 05 October 2021
Orbit: 520 x 642 km, 65.0° (Epoch: 20 October)

Event Time Altitude Azimuth Distance (km) Brightness Sun altitude
Rises 09:39:25 0° 257° (WSW) 2,805 7.1 -32.1°
Reaches altitude 10° 09:43:25 10° 220° (SW) 1,949 6.5 -32.5°
Maximum altitude 09:44:38 11° 203° (SSW) 1,896 6.3 -32.6°
Drops below altitude 10° 09:45:53 10° 187° (S) 1,974 6.3 -32.7°
Sets 09:50:02 0° 150° (SSE) 2,920 6.8 -33.1°
